Left ArrowRight Arrow

46.92218, -95.05863

Hourly Observations for June 19, 2024

Temp ( °F °C ) Dew Point ( °F °C ) Humidity (%) Winds ( mph kmh ) Pressure ( in mb ) Visibility ( mi km ) Precip ( " mm )
1:01 am 01:01 Cloudy 59 15 57 13.9 93 93 W 13 20 29.87 1012 10 16 0.00 0.00
1:46 am 01:46 Cloudy 57 13.9 55 12.8 93 93 W 15 24 29.90 1013 10 16 0.00 0.00
1:53 am 01:53 Cloudy 57 13.9 55 12.8 93 93 WNW 17 28 29.92 1013 10 16 0.00 0.00
2:53 am 02:53 Cloudy 56 13.3 54 12.2 93 93 WNW 14 22 29.95 1014 10 16 0.00 0.00
3:31 am 03:31 Cloudy 56 13.3 53 11.7 90 90 WNW 14 22 29.96 1015 10 16 0.00 0.00
3:53 am 03:53 Cloudy 56 13.3 53 11.7 90 90 WNW 14 22 29.98 1015 10 16 0.00 0.00
4:15 am 04:15 Cloudy 56 13.3 53 11.7 90 90 WNW 14 22 29.98 1015 10 16 0.00 0.00
4:53 am 04:53 Cloudy 54 12.2 51 10.6 90 90 NW 18 30 30.04 1017 10 16 0.00 0.00
5:11 am 05:11 Cloudy 53 11.7 50 10 89 89 NNW 15 24 30.05 1018 10 16 0.00 0.00
5:18 am 05:18 Mostly Cloudy 53 11.7 50 10 89 89 NNW 9 15 30.05 1018 10 16 0.00 0.00
5:53 am 05:53 Cloudy 53 11.7 50 10 89 89 NNW 12 19 30.09 1019 10 16 0.00 0.00
6:20 am 06:20 Cloudy 53 11.7 49 9.4 86 86 NW 9 15 30.11 1020 10 16 0.00 0.00
6:53 am 06:53 Mostly Cloudy 53 11.7 49 9.4 86 86 NW 8 13 30.14 1021 10 16 0.00 0.00
7:16 am 07:16 Partly Cloudy 54 12.2 49 9.4 83 83 NW 7 11 30.15 1021 10 16 0.00 0.00
7:53 am 07:53 Partly Cloudy 55 12.8 48 8.9 77 77 NW 8 13 30.18 1022 10 16 0.00 0.00
8:04 am 08:04 Mostly Cloudy 55 12.8 48 8.9 77 77 NNW 8 13 30.18 1022 10 16 0.00 0.00
8:20 am 08:20 Partly Cloudy 55 12.8 48 8.9 77 77 NNW 8 13 30.18 1022 10 16 0.00 0.00
8:53 am 08:53 Partly Cloudy 57 13.9 48 8.9 72 72 NW 9 15 30.20 1023 10 16 0.00 0.00
9:46 am 09:46 Mostly Cloudy 57 13.9 49 9.4 74 74 WNW 9 15 30.21 1023 10 16 0.00 0.00
9:53 am 09:53 Mostly Cloudy 58 14.4 49 9.4 72 72 NW 10 17 30.23 1024 10 16 0.00 0.00
10:53 am 10:53 Mostly Cloudy 62 16.7 49 9.4 62 62 NNW 10 17 30.25 1024 10 16 0.00 0.00
11:53 am 11:53 Mostly Cloudy 62 16.7 48 8.9 60 60 NNW 10 17 30.27 1025 10 16 0.00 0.00
12:53 pm 12:53 Partly Cloudy 64 17.8 48 8.9 56 56 VRB 3 6 30.28 1026 10 16 0.00 0.00
1:53 pm 13:53 Partly Cloudy 65 18.3 46 7.8 50 50 NNW 10 17 30.30 1026 10 16 0.00 0.00
2:53 pm 14:53 Sunny 68 20 46 7.8 45 45 W 9 15 30.30 1026 10 16 0.00 0.00
3:53 pm 15:53 Mostly Sunny 68 20 44 6.7 42 42 VRB 5 7 30.30 1026 10 16 0.00 0.00
4:53 pm 16:53 Sunny 69 20.6 44 6.7 40 40 NNW 7 11 30.30 1026 10 16 0.00 0.00
5:53 pm 17:53 Sunny 69 20.6 46 7.8 44 44 W 5 7 30.29 1026 10 16 0.00 0.00
6:53 pm 18:53 Sunny 70 21.1 46 7.8 42 42 Calm 30.29 1026 10 16 0.00 0.00
7:53 pm 19:53 Sunny 68 20 46 7.8 45 45 Calm 30.30 1026 10 16 0.00 0.00
8:53 pm 20:53 Sunny 67 19.4 44 6.7 44 44 ESE 3 6 30.31 1026 10 16 0.00 0.00
9:53 pm 21:53 Clear 62 16.7 52 11.1 70 70 Calm 30.33 1027 10 16 0.00 0.00
10:53 pm 22:53 Clear 62 16.7 52 11.1 70 70 Calm 30.34 1027 10 16 0.00 0.00
11:53 pm 23:53 Clear 58 14.4 53 11.7 84 84 Calm 30.35 1028 10 16 0.00 0.00

Powered by Vaisala Xweather